CW0041 Weather Reports


time (UTC)temp
C
wind
direction
speed
KPH
gust
KPH
rain 1hr
cm
rain 24hr
cm
rain mn
cm
humidity
%
barometer
mb
20260506180048 31 133 4.8 20.9 0.00 0.00 0.00 57 1014.8
20260506175342 31 235 4.8 17.7 0.00 0.00 0.00 54 1015.7
20260506174843 30 347 4.8 17.7 0.00 0.00 0.00 56 1015.8
20260506174559 30 163 3.2 14.5 0.00 0.00 0.00 55 1015.0
20260506174336 30 338 3.2 8.0 0.00 0.00 0.00 52 1015.9
20260506173826 31 162 3.2 12.9 0.00 0.00 0.00 53 1016.0
20260506173326 30 168 4.8 12.9 0.00 0.00 0.00 52 1016.0
20260506173053 30 257 4.8 17.7 0.00 0.00 0.00 54 1015.1
20260506172824 31 85 4.8 17.7 0.00 0.00 0.00 52 1016.0
20260506172321 31 355 3.2 17.7 0.00 0.00 0.00 51 1016.2
20260506171822 31 249 3.2 8.0 0.00 0.00 0.00 54 1016.3
20260506171544 31 125 1.6 6.4 0.00 0.00 0.00 57 1015.5
20260506171322 31 200 3.2 6.4 0.00 0.00 0.00 55 1016.4
20260506170822 31 33 3.2 9.7 0.00 0.00 0.00 54 1016.4
20260506170309 31 222 4.8 14.5 0.00 0.00 0.00 55 1016.3
20260506170043 30 176 3.2 16.1 0.00 0.00 0.00 54 1015.4
20260506165759 31 157 4.8 14.5 0.00 0.00 0.00 54 1016.4
20260506165300 31 204 3.2 14.5 0.00 0.00 0.00 54 1016.4
20260506164800 30 197 3.2 9.7 0.00 0.00 0.00 55 1016.5
20260506164546 30 172 3.2 11.3 0.00 0.00 0.00 57 1015.7
20260506164301 30 293 3.2 11.3 0.00 0.00 0.00 57 1016.7
20260506163250 30 236 4.8 14.5 0.00 0.00 0.00 55 1016.8
20260506163054 30 152 3.2 14.5 0.00 0.00 0.00 55 1015.8
20260506162751 30 240 4.8 14.5 0.00 0.00 0.00 55 1016.8
20260506162240 30 196 3.2 11.3 0.00 0.00 0.00 56 1016.8
20260506161740 30 175 3.2 9.7 0.00 0.00 0.00 57 1016.8
20260506161534 30 158 3.2 11.3 0.00 0.00 0.00 56 1016.0
20260506161241 30 276 3.2 8.0 0.00 0.00 0.00 57 1016.8
20260506160737 30 222 4.8 11.3 0.00 0.00 0.00 58 1016.9
20260506160237 29 178 4.8 11.3 0.00 0.00 0.00 56 1016.9
20260506160031 29 139 3.2 11.3 0.00 0.00 0.00 58 1016.1
20260506155235 29 354 3.2 12.9 0.00 0.00 0.00 58 1016.9
20260506154733 28 216 3.2 8.0 0.00 0.00 0.00 57 1016.8
20260506154534 28 107 3.2 9.7 0.00 0.00 0.00 59 1016.0
20260506154237 28 338 3.2 12.9 0.00 0.00 0.00 59 1016.9
20260506153222 28 247 3.2 12.9 0.00 0.00 0.00 59 1017.0
20260506153028 28 268 3.2 14.5 0.00 0.00 0.00 60 1016.1
20260506152718 28 213 4.8 12.9 0.00 0.00 0.00 59 1016.9
20260506152205 28 145 3.2 11.3 0.00 0.00 0.00 59 1017.1
20260506151655 28 52 3.2 8.0 0.00 0.00 0.00 60 1017.0
20260506151521 28 174 1.6 8.0 0.00 0.00 0.00 61 1016.2
20260506151143 28 353 3.2 8.0 0.00 0.00 0.00 60 1017.0
20260506150647 28 216 3.2 9.7 0.00 0.00 0.00 60 1016.8
20260506150138 27 218 3.2 9.7 0.00 0.00 0.00 61 1016.6
20260506150016 27 207 1.6 11.3 0.00 0.00 0.00 64 1015.7
20260506145629 27 226 4.8 19.3 0.00 0.00 0.00 63 1016.6
20260506145122 27 126 6.4 19.3 0.00 0.00 0.00 61 1016.7
20260506144623 26 197 3.2 14.5 0.00 0.00 0.00 63 1016.7
20260506144511 26 138 4.8 14.5 0.00 0.00 0.00 63 1015.8
20260506143052 26 243 4.8 14.5 0.00 0.00 0.00 65 1016.7
20260506143009 26 169 4.8 12.9 0.00 0.00 0.00 66 1015.9
20260506142544 26 231 3.2 11.3 0.00 0.00 0.00 68 1016.7
20260506142043 25 249 4.8 9.7 0.00 0.00 0.00 66 1016.8
20260506141540 25 216 6.4 12.9 0.00 0.00 0.00 67 1016.7
20260506141505 25 158 4.8 14.5 0.00 0.00 0.00 68 1015.9
20260506140534 25 218 4.8 14.5 0.00 0.00 0.00 67 1016.8
20260506140027 25 216 4.8 9.7 0.00 0.00 0.00 68 1016.7
20260506140003 25 154 1.6 11.3 0.00 0.00 0.00 69 1015.8
20260506135516 25 220 3.2 12.9 0.00 0.00 0.00 68 1016.6
20260506135006 25 205 4.8 16.1 0.00 0.00 0.00 68 1016.5
20260506134558 24 129 1.6 17.7 0.00 0.00 0.00 70 1015.6
20260506133438 24 197 4.8 14.5 0.00 0.00 0.00 69 1016.3
20260506133057 23 164 3.2 16.1 0.00 0.00 0.00 71 1015.4
20260506132936 24 198 4.8 14.5 0.00 0.00 0.00 70 1016.2
20260506132438 23 188 6.4 14.5 0.00 0.00 0.00 70 1016.3
20260506131937 23 236 6.4 12.9 0.00 0.00 0.00 70 1016.3
20260506131556 23 197 3.2 14.5 0.00 0.00 0.00 71 1015.5
20260506131435 23 227 4.8 12.9 0.00 0.00 0.00 70 1016.5
20260506130444 22 207 3.2 8.0 0.00 0.00 0.00 72 1016.5
20260506130049 22 127 1.6 9.7 0.00 0.00 0.00 74 1015.7
20260506125924 22 202 3.2 11.3 0.00 0.00 0.00 74 1016.6
20260506125418 22 180 3.2 11.3 0.00 0.00 0.00 74 1016.5
20260506124908 21 189 3.2 9.7 0.00 0.00 0.00 75 1016.5
20260506124546 21 149 3.2 8.0 0.00 0.00 0.00 77 1015.6
20260506124400 21 206 3.2 8.0 0.00 0.00 0.00 76 1016.4
20260506123855 21 171 4.8 8.0 0.00 0.00 0.00 77 1016.4
20260506123357 20 191 3.2 9.7 0.00 0.00 0.00 78 1016.4
20260506123040 20 169 3.2 9.7 0.00 0.00 0.00 79 1015.6
20260506122857 20 187 3.2 11.3 0.00 0.00 0.00 79 1016.3
20260506122350 20 197 3.2 11.3 0.00 0.00 0.00 79 1016.3
20260506121543 19 166 1.6 9.7 0.00 0.00 0.00 81 1015.4
20260506121352 19 224 3.2 12.9 0.00 0.00 0.00 80 1016.3
20260506120034 18 154 4.8 9.7 0.00 0.00 0.00 82 1015.4
20260506115850 18 199 3.2 8.0 0.00 0.00 0.00 82 1016.2
20260506115349 18 204 3.2 6.4 0.00 0.00 0.00 82 1016.3
20260506114836 17 245 1.6 6.4 0.00 0.00 0.00 82 1016.2
20260506114527 17 139 1.6 4.8 0.00 0.00 0.00 83 1015.3
20260506114336 17 196 1.6 4.8 0.00 0.00 0.00 82 1016.3
20260506113837 17 141 0.0 4.8 0.00 0.00 0.00 82 1016.3
20260506113331 17 326 0.0 3.2 0.00 0.00 0.00 82 1016.2
20260506113025 17 268 0.0 3.2 0.00 0.00 0.00 83 1015.2
20260506112826 17 326 0.0 3.2 0.00 0.00 0.00 82 1016.1
20260506112325 17 327 0.0 1.6 0.00 0.00 0.00 82 1016.0
20260506111826 17 329 0.0 1.6 0.00 0.00 0.00 82 1015.8
20260506111529 16 271 0.0 1.6 0.00 0.00 0.00 83 1014.9
20260506111329 17 329 0.0 1.6 0.00 0.00 0.00 82 1015.6
20260506110307 16 161 0.0 1.6 0.00 0.00 0.00 82 1015.5
20260506110023 16 151 0.0 1.6 0.00 0.00 0.00 83 1014.6
20260506105755 16 209 0.0 1.6 0.00 0.00 0.00 82 1015.5
20260506105247 16 209 0.0 1.6 0.00 0.00 0.00 82 1015.4
20260506104732 16 209 0.0 1.6 0.00 0.00 0.00 82 1015.3
20260506104519 16 151 0.0 1.6 0.00 0.00 0.00 83 1014.5
20260506104230 16 209 0.0 1.6 0.00 0.00 0.00 82 1015.4
20260506103731 17 209 0.0 1.6 0.00 0.00 0.00 82 1015.3
20260506103227 16 209 0.0 3.2 0.00 0.00 0.00 82 1015.4
20260506103019 16 151 0.0 3.2 0.00 0.00 0.00 83 1014.5
20260506102723 16 209 0.0 3.2 0.00 0.00 0.00 82 1015.4
20260506102208 17 209 0.0 1.6 0.00 0.00 0.00 82 1015.5
20260506101519 16 151 0.0 1.6 0.00 0.00 0.00 83 1014.6
20260506101209 17 209 0.0 1.6 0.00 0.00 0.00 82 1015.5
20260506100218 17 209 0.0 0.0 0.00 0.00 0.00 82 1015.6
20260506100018 17 151 0.0 0.0 0.00 0.00 0.00 83 1014.7
20260506094703 17 209 0.0 0.0 0.00 0.00 0.00 82 1015.5
20260506094518 17 151 0.0 0.0 0.00 0.00 0.00 83 1014.7
20260506094207 17 209 0.0 0.0 0.00 0.00 0.00 82 1015.5
20260506093701 17 209 0.0 0.0 0.00 0.00 0.00 82 1015.5
20260506093201 17 209 0.0 0.0 0.00 0.00 0.00 82 1015.4
20260506093016 17 151 0.0 0.0 0.00 0.00 0.00 83 1014.5
20260506092703 17 209 0.0 0.0 0.00 0.00 0.00 82 1015.3
20260506092200 17 209 0.0 0.0 0.00 0.00 0.00 82 1015.3
20260506091700 17 209 0.0 0.0 0.00 0.00 0.00 82 1015.2
20260506091516 16 151 0.0 0.0 0.00 0.00 0.00 82 1014.4
20260506091200 17 209 0.0 1.6 0.00 0.00 0.00 81 1015.1
20260506090700 17 209 0.0 1.6 0.00 0.00 0.00 82 1015.1
20260506090202 17 209 0.0 1.6 0.00 0.00 0.00 82 1015.2
20260506090015 16 151 0.0 0.0 0.00 0.00 0.00 83 1014.3
20260506084655 17 209 0.0 3.2 0.00 0.00 0.00 82 1015.2
20260506084517 16 151 0.0 3.2 0.00 0.00 0.00 83 1014.3
20260506083652 16 209 0.0 1.6 0.00 0.00 0.00 82 1015.2
20260506083147 16 209 0.0 1.6 0.00 0.00 0.00 81 1015.2
20260506083017 16 151 0.0 1.6 0.00 0.00 0.00 83 1014.4
20260506082137 16 209 0.0 0.0 0.00 0.00 0.00 81 1015.4
20260506081638 17 209 0.0 0.0 0.00 0.00 0.00 81 1015.2
20260506081512 16 151 0.0 0.0 0.00 0.00 0.00 82 1014.3
20260506081132 17 209 0.0 1.6 0.00 0.00 0.00 81 1015.2
20260506080144 17 209 0.0 1.6 0.00 0.00 0.00 81 1015.2
20260506073100 16 209 0.0 1.6 0.00 0.00 0.00 81 1015.3
20260506073010 16 151 0.0 1.6 0.00 0.00 0.00 82 1014.4
20260506072600 16 209 0.0 1.6 0.00 0.00 0.00 80 1015.0
20260506072055 16 209 0.0 1.6 0.00 0.00 0.00 80 1014.9
20260506071543 16 209 0.0 1.6 0.00 0.00 0.00 80 1014.9
20260506071508 16 151 0.0 1.6 0.00 0.00 0.00 81 1014.1
20260506071039 16 209 0.0 0.0 0.00 0.00 0.00 80 1015.1
20260506070536 16 209 0.0 0.0 0.00 0.00 0.00 80 1015.1
20260506062019 16 209 0.0 0.0 0.00 0.00 0.00 79 1015.7
20260506061519 16 209 0.0 0.0 0.00 0.00 0.00 79 1015.8
20260506061504 16 151 0.0 0.0 0.00 0.00 0.00 80 1015.0
20260506051015 16 209 0.0 0.0 0.00 0.00 0.00 77 1016.1
20260506050508 16 209 0.0 0.0 0.00 0.00 0.00 77 1016.0
20260506044522 16 151 0.0 0.0 0.00 0.00 0.00 78 1015.3
20260506044507 16 209 0.0 0.0 0.00 0.00 0.00 77 1016.1
20260506044008 16 209 0.0 0.0 0.00 0.00 0.00 76 1016.2
20260506043507 16 209 0.0 0.0 0.00 0.00 0.00 76 1016.2
20260506043020 16 151 0.0 0.0 0.00 0.00 0.00 77 1015.3
20260506042504 16 209 0.0 0.0 0.00 0.00 0.00 76 1016.1
20260506042007 16 209 0.0 0.0 0.00 0.00 0.00 76 1016.1
20260506041532 16 151 0.0 0.0 0.00 0.00 0.00 77 1015.3
20260506041454 17 209 0.0 0.0 0.00 0.00 0.00 76 1016.1
20260506040947 17 209 0.0 0.0 0.00 0.00 0.00 76 1016.1
20260506040447 17 209 0.0 0.0 0.00 0.00 0.00 76 1016.0
20260506040017 17 151 0.0 0.0 0.00 0.00 0.00 77 1015.3
20260506035946 17 209 0.0 0.0 0.00 0.00 0.00 76 1016.1
20260506034924 17 209 0.0 0.0 0.00 0.00 0.00 76 1016.2
20260506034523 17 151 0.0 0.0 0.00 0.00 0.00 77 1015.4
20260506034412 17 209 0.0 0.0 0.00 0.00 0.00 76 1016.4
20260506033905 17 209 0.0 0.0 0.00 0.00 0.00 76 1016.4
20260506033405 17 209 0.0 0.0 0.00 0.00 0.00 76 1016.5
20260506033017 17 151 0.0 0.0 0.00 0.00 0.00 77 1015.6
20260506032904 17 209 0.0 0.0 0.00 0.00 0.00 76 1016.5
20260506032400 17 209 0.0 0.0 0.00 0.00 0.00 75 1016.5
20260506031853 17 209 0.0 0.0 0.00 0.00 0.00 75 1016.4
20260506031516 17 151 0.0 0.0 0.00 0.00 0.00 76 1015.5
20260506031351 17 209 0.0 0.0 0.00 0.00 0.00 74 1016.3
20260506030349 17 209 0.0 0.0 0.00 0.00 0.00 73 1016.3
20260506030017 17 151 0.0 0.0 0.00 0.00 0.00 74 1015.3
20260506025840 17 209 0.0 0.0 0.00 0.00 0.00 74 1016.2
20260506025339 17 209 0.0 0.0 0.00 0.00 0.00 74 1016.2
20260506024841 17 209 0.0 0.0 0.00 0.00 0.00 74 1016.2
20260506024514 17 151 0.0 0.0 0.00 0.00 0.00 74 1015.3
20260506024340 18 209 0.0 0.0 0.00 0.00 0.00 73 1016.1
20260506023829 18 209 0.0 0.0 0.00 0.00 0.00 73 1016.1
20260506023329 18 209 0.0 0.0 0.00 0.00 0.00 73 1016.0
20260506023014 18 151 0.0 0.0 0.00 0.00 0.00 74 1015.2
20260506022830 18 209 0.0 0.0 0.00 0.00 0.00 73 1016.0
20260506022327 18 209 0.0 1.6 0.00 0.00 0.00 73 1016.0
20260506021821 18 209 0.0 1.6 0.00 0.00 0.00 72 1016.0
20260506021514 18 151 0.0 1.6 0.00 0.00 0.00 73 1015.1
20260506021310 18 209 0.0 3.2 0.00 0.00 0.00 72 1015.9
20260506020803 18 209 0.0 3.2 0.00 0.00 0.00 72 1015.9
20260506020258 18 209 0.0 3.2 0.00 0.00 0.00 71 1015.8
20260506020013 18 152 0.0 1.6 0.00 0.00 0.00 72 1015.0
20260506015756 19 210 0.0 0.0 0.00 0.00 0.00 71 1015.8
20260506015258 19 210 0.0 1.6 0.00 0.00 0.00 70 1015.8
20260506014753 19 210 0.0 1.6 0.00 0.00 0.00 70 1015.7
20260506014512 19 152 0.0 1.6 0.00 0.00 0.00 71 1014.8
20260506014245 19 210 0.0 1.6 0.00 0.00 0.00 70 1015.6
20260506013744 19 210 0.0 3.2 0.00 0.00 0.00 70 1015.6
20260506013245 20 209 1.6 3.2 0.00 0.00 0.00 69 1015.5
20260506013030 20 151 0.0 3.2 0.00 0.00 0.00 70 1014.6
20260506012746 20 210 0.0 3.2 0.00 0.00 0.00 69 1015.5
20260506012241 20 209 0.0 3.2 0.00 0.00 0.00 68 1015.5
20260506011745 20 209 1.6 3.2 0.00 0.00 0.00 68 1015.5
20260506011522 20 151 0.0 4.8 0.00 0.00 0.00 69 1014.7
20260506010726 20 207 0.0 3.2 0.00 0.00 0.00 67 1015.6
20260506010219 20 205 1.6 4.8 0.00 0.00 0.00 67 1015.5
20260506010012 20 147 0.0 4.8 0.00 0.00 0.00 68 1014.7
20260506005718 20 205 1.6 6.4 0.00 0.00 0.00 67 1015.4
20260506005220 20 213 0.0 6.4 0.00 0.00 0.00 66 1015.5
20260506004511 20 130 0.0 4.8 0.00 0.00 0.00 67 1014.7
20260506004212 21 188 1.6 4.8 0.00 0.00 0.00 66 1015.5
20260506003703 21 207 1.6 4.8 0.00 0.00 0.00 65 1015.5
20260506003152 21 207 1.6 4.8 0.00 0.00 0.00 65 1015.4
20260506003011 21 149 0.0 4.8 0.00 0.00 0.00 66 1014.6
20260506002643 21 207 1.6 4.8 0.00 0.00 0.00 65 1015.3
20260506001616 21 201 3.2 8.0 0.00 0.00 0.00 65 1015.3
20260506001510 21 143 3.2 6.4 0.00 0.00 0.00 66 1014.4
20260506001107 21 199 3.2 8.0 0.00 0.00 0.00 65 1015.3
20260506000552 21 228 3.2 9.7 0.00 0.00 0.00 65 1015.3
20260506000056 21 209 3.2 9.7 0.00 0.00 0.00 65 1015.2
20260506000010 21 152 1.6 9.7 0.00 0.00 0.00 66 1014.5
20260505235028 22 226 3.2 6.4 0.00 0.00 0.00 65 1015.3
20260505234525 22 196 3.2 6.4 0.00 0.00 0.00 64 1015.4
20260505234509 22 138 3.2 8.0 0.00 0.00 0.00 65 1014.5
20260505234026 22 190 3.2 6.4 0.00 0.00 0.00 64 1015.3
20260505233539 22 222 3.2 9.7 0.00 0.00 0.00 64 1015.5
20260505233008 22 177 4.8 9.7 0.00 0.00 0.00 64 1014.7
20260505232506 22 213 3.2 11.3 0.00 0.00 0.00 63 1015.4
20260505232004 22 184 4.8 11.3 0.00 0.00 0.00 62 1015.3
20260505231507 22 31 4.8 9.7 0.00 0.00 0.00 63 1014.5
20260505231505 22 224 4.8 11.3 0.00 0.00 0.00 62 1015.3
20260505231004 22 199 4.8 14.5 0.00 0.00 0.00 62 1015.2
20260505230504 22 157 4.8 14.5 0.00 0.00 0.00 62 1015.3
20260505230007 22 103 4.8 16.1 0.00 0.00 0.00 63 1014.5
20260505230001 22 341 6.4 14.5 0.00 0.00 0.00 62 1015.3
20260505225501 23 201 6.4 14.5 0.00 0.00 0.00 61 1015.3
20260505225003 23 245 4.8 14.5 0.00 0.00 0.00 61 1015.3
20260505224511 22 154 3.2 9.7 0.00 0.00 0.00 62 1014.4
20260505224000 23 235 6.4 16.1 0.00 0.00 0.00 62 1015.3
20260505223005 23 45 4.8 11.3 0.00 0.00 0.00 63 1014.4
20260505222957 23 218 4.8 12.9 0.00 0.00 0.00 62 1015.3
20260505221505 23 165 4.8 14.5 0.00 0.00 0.00 62 1014.3
20260505221456 23 217 6.4 14.5 0.00 0.00 0.00 61 1015.1
20260505220956 23 208 6.4 16.1 0.00 0.00 0.00 61 1015.3
20260505220010 23 145 3.2 14.5 0.00 0.00 0.00 62 1014.4
20260505215956 23 191 4.8 12.9 0.00 0.00 0.00 61 1015.2
20260505215443 23 222 4.8 16.1 0.00 0.00 0.00 61 1015.3
20260505214944 23 142 6.4 16.1 0.00 0.00 0.00 61 1015.3
20260505214503 23 63 6.4 14.5 0.00 0.00 0.00 62 1014.6
20260505214445 23 157 8.0 12.9 0.00 0.00 0.00 61 1015.4
20260505213941 23 93 8.0 17.7 0.00 0.00 0.00 61 1015.3
20260505213436 23 205 8.0 17.7 0.00 0.00 0.00 60 1015.4
20260505213002 23 39 4.8 14.5 0.00 0.00 0.00 62 1014.6
20260505212924 24 101 6.4 14.5 0.00 0.00 0.00 60 1015.5
20260505212415 24 178 6.4 16.1 0.00 0.00 0.00 61 1015.4
20260505211913 24 147 8.0 19.3 0.00 0.00 0.00 61 1015.5
20260505211502 24 159 6.4 22.5 0.00 0.00 0.00 62 1014.6
20260505211414 24 228 8.0 19.3 0.00 0.00 0.00 60 1015.4
20260505210912 25 182 6.4 16.1 0.00 0.00 0.00 59 1015.4
20260505210416 25 224 8.0 19.3 0.00 0.00 0.00 58 1015.4
20260505210001 24 185 6.4 17.7 0.00 0.00 0.00 60 1014.4
20260505205401 25 243 6.4 17.7 0.00 0.00 0.00 57 1015.4
20260505204901 25 187 6.4 17.7 0.00 0.00 0.00 56 1015.4
20260505204605 25 44 3.2 19.3 0.00 0.00 0.00 58 1014.6
20260505203851 25 230 6.4 19.3 0.00 0.00 0.00 56 1015.4
20260505203108 25 133 6.4 22.5 0.00 0.00 0.00 57 1014.6
20260505202849 25 137 8.0 19.3 0.00 0.00 0.00 54 1015.5
20260505202351 25 216 6.4 14.5 0.00 0.00 0.00 53 1015.5
20260505201841 25 108 8.0 19.3 0.00 0.00 0.00 51 1015.7
20260505201558 25 36 3.2 19.3 0.00 0.00 0.00 53 1014.8
20260505201342 26 200 8.0 19.3 0.00 0.00 0.00 51 1015.8
20260505200841 26 205 6.4 16.1 0.00 0.00 0.00 52 1015.7
20260505200333 26 224 6.4 16.1 0.00 0.00 0.00 50 1015.9
20260505200109 26 140 4.8 17.7 0.00 0.00 0.00 52 1014.9
20260505195312 26 205 6.4 14.5 0.00 0.00 0.00 50 1016.0
20260505194804 26 197 6.4 19.3 0.00 0.00 0.00 51 1016.1
20260505194556 26 97 4.8 20.9 0.00 0.00 0.00 51 1015.3
20260505194303 26 52 6.4 19.3 0.00 0.00 0.00 51 1016.2
20260505193301 26 176 6.4 20.9 0.00 0.00 0.00 51 1016.2
20260505193104 26 151 6.4 20.9 0.00 0.00 0.00 52 1015.4
20260505192759 26 198 6.4 20.9 0.00 0.00 0.00 52 1016.2
20260505192305 26 149 8.0 19.3 0.00 0.00 0.00 52 1016.2
20260505191757 26 180 8.0 19.3 0.00 0.00 0.00 52 1016.3
20260505191607 26 146 11.3 20.9 0.00 0.00 0.00 52 1015.6
20260505191257 26 173 8.0 25.7 0.00 0.00 0.00 51 1016.3
20260505190758 26 205 8.0 25.7 0.00 0.00 0.00 52 1016.3
20260505190254 26 233 6.4 16.1 0.00 0.00 0.00 53 1016.4
20260505190055 26 44 8.0 17.7 0.00 0.00 0.00 53 1015.6
20260505185255 26 162 8.0 17.7 0.00 0.00 0.00 53 1016.5
20260505184557 26 89 4.8 14.5 0.00 0.00 0.00 55 1015.8
20260505184254 26 187 8.0 19.3 0.00 0.00 0.00 54 1016.7
20260505183251 26 178 8.0 19.3 0.00 0.00 0.00 54 1016.8
20260505183053 26 128 11.3 19.3 0.00 0.00 0.00 55 1016.0
20260505182742 26 216 8.0 19.3 0.00 0.00 0.00 54 1016.8
20260505182234 26 244 6.4 16.1 0.00 0.00 0.00 54 1016.7
20260505181730 27 200 6.4 14.5 0.00 0.00 0.00 52 1016.8
20260505181557 26 146 4.8 12.9 0.00 0.00 0.00 55 1015.9
20260505181232 26 197 6.4 16.1 0.00 0.00 0.00 55 1016.8
20260505180730 26 197 6.4 16.1 0.00 0.00 0.00 53 1016.8